TimeCET,TemperatureF,Dew PointF,Humidity,Sea Level PressureIn,VisibilityMPH,Wind Direction,Wind SpeedMPH,Gust SpeedMPH,PrecipitationIn,Events,Conditions,WindDirDegrees,DateUTC
12:00 AM,57.2,50.0,77,29.77,-9999.0,NE,1.2,-,N/A,,Clear,50,2012-11-01 23:00:00
12:30 AM,55.4,51.8,88,29.77,-9999.0,Variable,2.3,-,N/A,,Clear,0,2012-11-01 23:30:00
1:00 AM,53,47,75,29.80,12,ENE,1.2,,,,,60,2012-11-02 00:00:00
1:00 AM,53.6,50.0,88,29.80,-9999.0,Variable,1.2,-,N/A,,Clear,0,2012-11-02 00:00:00
1:30 AM,53.6,50.0,88,29.80,-9999.0,Variable,1.2,-,N/A,,Clear,0,2012-11-02 00:30:00
2:00 AM,53.6,50.0,88,29.80,-9999.0,Calm,Calm,-,N/A,,Clear,0,2012-11-02 01:00:00
2:30 AM,53.6,51.8,94,29.83,-9999.0,Calm,Calm,-,N/A,,Clear,0,2012-11-02 01:30:00
3:00 AM,50.0,48.2,94,29.83,-9999.0,Variable,2.3,-,N/A,,Clear,0,2012-11-02 02:00:00
3:30 AM,51.8,50.0,94,29.83,6.2,Calm,Calm,-,N/A,,Partly Cloudy,0,2012-11-02 02:30:00
4:00 AM,50.0,48.2,94,29.83,6.2,NE,2.3,-,N/A,,Partly Cloudy,40,2012-11-02 03:00:00
4:30 AM,51.8,50.0,94,29.83,6.2,ENE,2.3,-,N/A,,Partly Cloudy,60,2012-11-02 03:30:00
5:00 AM,50.0,48.2,94,29.86,6.2,Calm,Calm,-,N/A,,Partly Cloudy,0,2012-11-02 04:00:00
5:30 AM,51.8,50.0,94,29.86,6.2,ENE,2.3,-,N/A,,Partly Cloudy,60,2012-11-02 04:30:00
6:00 AM,50.0,48.2,94,29.86,6.2,ENE,3.5,-,N/A,,Partly Cloudy,60,2012-11-02 05:00:00
6:30 AM,50.0,50.0,100,29.86,6.2,Calm,Calm,-,N/A,,Partly Cloudy,0,2012-11-02 05:30:00
7:00 AM,48,46,91,29.88,11,Calm,Calm,,,,Scattered Clouds,,2012-11-02 06:00:00
7:00 AM,50.0,48.2,94,29.86,6.2,NNE,2.3,-,N/A,,Partly Cloudy,30,2012-11-02 06:00:00
7:30 AM,50.0,50.0,100,29.89,6.2,Calm,Calm,-,N/A,,Partly Cloudy,0,2012-11-02 06:30:00
8:00 AM,51.8,50.0,94,29.89,6.2,Calm,Calm,-,N/A,,Partly Cloudy,0,2012-11-02 07:00:00
8:30 AM,53.6,53.6,100,29.89,6.2,Calm,Calm,-,N/A,,Partly Cloudy,0,2012-11-02 07:30:00
9:00 AM,57.2,57.2,100,29.92,6.2,Calm,Calm,-,N/A,,Partly Cloudy,0,2012-11-02 08:00:00
9:30 AM,60.8,57.2,88,29.92,6.2,Variable,1.2,-,N/A,,Partly Cloudy,0,2012-11-02 08:30:00
10:00 AM,66.2,59.0,78,29.92,6.2,SW,6.9,-,N/A,,Partly Cloudy,230,2012-11-02 09:00:00
10:30 AM,68.0,59.0,73,29.95,6.2,WSW,13.8,-,N/A,,Partly Cloudy,250,2012-11-02 09:30:00
11:00 AM,68.0,59.0,73,29.95,6.2,WSW,13.8,-,N/A,,Partly Cloudy,250,2012-11-02 10:00:00
11:30 AM,68.0,59.0,73,29.95,6.2,WSW,13.8,-,N/A,,Partly Cloudy,240,2012-11-02 10:30:00
12:00 PM,68.0,59.0,73,29.95,6.2,WSW,13.8,-,N/A,,Partly Cloudy,240,2012-11-02 11:00:00
12:30 PM,68.0,57.2,68,29.95,6.2,WSW,17.3,-,N/A,,Partly Cloudy,240,2012-11-02 11:30:00
1:00 PM,69,53,47,29.94,17,WSW,17.3,,,,Scattered Clouds,240,2012-11-02 12:00:00
1:00 PM,69.8,57.2,64,29.92,6.2,WSW,16.1,-,N/A,,Partly Cloudy,240,2012-11-02 12:00:00
1:30 PM,69.8,59.0,68,29.92,6.2,WSW,16.1,-,N/A,,Partly Cloudy,250,2012-11-02 12:30:00
2:00 PM,69.8,57.2,64,29.92,6.2,WSW,13.8,-,N/A,,Partly Cloudy,240,2012-11-02 13:00:00
2:30 PM,68.0,57.2,68,29.92,6.2,WSW,15.0,-,N/A,,Partly Cloudy,250,2012-11-02 13:30:00
3:00 PM,68.0,57.2,68,29.92,6.2,WSW,16.1,-,N/A,,Partly Cloudy,250,2012-11-02 14:00:00
3:30 PM,68.0,57.2,68,29.92,6.2,WSW,15.0,-,N/A,,Partly Cloudy,250,2012-11-02 14:30:00
4:00 PM,68.0,53.6,60,29.92,6.2,West,12.7,-,N/A,,Partly Cloudy,260,2012-11-02 15:00:00
4:30 PM,68.0,51.8,56,29.92,6.2,West,15.0,-,N/A,,Partly Cloudy,260,2012-11-02 15:30:00
5:00 PM,68.0,53.6,60,29.92,6.2,West,12.7,-,N/A,,Partly Cloudy,260,2012-11-02 16:00:00
5:30 PM,66.2,51.8,60,29.95,6.2,West,12.7,-,N/A,,Partly Cloudy,260,2012-11-02 16:30:00
6:00 PM,66.2,51.8,60,29.95,6.2,West,9.2,-,N/A,,Partly Cloudy,270,2012-11-02 17:00:00
6:30 PM,64.4,53.6,68,29.95,6.2,West,9.2,-,N/A,,Partly Cloudy,260,2012-11-02 17:30:00
7:00 PM,62,49,53,29.98,16,Calm,Calm,,,,Scattered Clouds,,2012-11-02 18:00:00
7:00 PM,62.6,51.8,68,29.98,6.2,West,5.8,-,N/A,,Partly Cloudy,280,2012-11-02 18:00:00
7:30 PM,62.6,51.8,68,29.98,6.2,West,8.1,-,N/A,,Partly Cloudy,270,2012-11-02 18:30:00
8:00 PM,60.8,51.8,72,29.98,6.2,Calm,Calm,-,N/A,,Partly Cloudy,0,2012-11-02 19:00:00
8:30 PM,57.2,51.8,82,29.98,6.2,Variable,1.2,-,N/A,,Partly Cloudy,0,2012-11-02 19:30:00
9:00 PM,57.2,51.8,82,29.98,6.2,Variable,1.2,-,N/A,,Partly Cloudy,0,2012-11-02 20:00:00
9:30 PM,55.4,51.8,88,29.98,6.2,Variable,1.2,-,N/A,,Partly Cloudy,0,2012-11-02 20:30:00
10:00 PM,53.6,51.8,94,29.98,6.2,ENE,1.2,-,N/A,,Partly Cloudy,70,2012-11-02 21:00:00
10:30 PM,53.6,51.8,94,29.98,6.2,North,3.5,-,N/A,,Partly Cloudy,360,2012-11-02 21:30:00
11:00 PM,53.6,51.8,94,29.98,6.2,Calm,Calm,-,N/A,,Partly Cloudy,0,2012-11-02 22:00:00
11:30 PM,53.6,51.8,94,29.98,6.2,Calm,Calm,-,N/A,,Partly Cloudy,0,2012-11-02 22:30:00